Location: Helensbirgh
(56.0153°N, 4.7348°W)
Time: 23:24:30
(UTC+00:00)

N. Korean satellite - Pass Details

Date: 30 October 2019
Orbit: 456 x 506 km, 97.2° (Epoch: 16 November)

Event Time Altitude Azimuth Distance (km) Brightness Sun altitude
Rises 05:11:48 0° 26° (NNE) 2,591 10.7 -18.4°
Reaches altitude 10° 05:14:34 10° 50° (NE) 1,711 10.1 -18.0°
Maximum altitude 05:16:52 16° 88° (E) 1,391 10.0 -17.7°
Drops below altitude 10° 05:19:10 10° 127° (SE) 1,714 10.1 -17.4°
Sets 05:21:56 0° 150° (SSE) 2,598 10.7 -17.0°
